Zurück zum Katalog

STARLINK-5382

AktivKommunikationVLEO
NORAD 54820·PAYLOAD·🇺🇸 United States

Gestartet Dec 28, 2022 von Cape Canaveral Space Force Station

Loading…

Nächste Überflüge (nächste 24 Stunden)

TLE

AktuellSource: CelesTrak SupGP

Epoche: Sep 15, 2026, 01:58 UTC

1 54820C 22177A   26258.08243056  .00012414  00000+0  44977-3 0  2582
2 54820  43.0008 146.2637 0001381 257.9996  10.1001 15.27561217    16

Verfolge STARLINK-5382 in Echtzeit mit AllMySat

Download on the App Store